Погода в Буяге

Погода в Буяге : погода сейчас, прогноз погоды и архив. Всё, что Вы хотите узнать о погоде в Буяге!

Поиск расширенной информации на нашем сайте:

Полезная информация: Содержательный информационный сайт геологии Земли http://www.geologam.ru/

Другие новости

Новости СМИ2

Главная страница сайта

Новости сайта

03.07.2017

Напоминаем, что на нашем специализированном сайте Метеоцентр.Азия вы можете получить высокодетализированные автоматические прогнозы погоды по пунктам России, СНГ и мира в авиационном формате (включающие направление и скорость ветра, видимость, явления погоды, количество и форму облачности, нижнюю и верхнюю границу облачности).

Рекомендуем: Вшэ в праге высшая школа экономики прага.

Погода в Буяге - сегодня

Время (UTC), дата Ветер
(°,м/с) 
Видим.   Явления Облачность Т
(°С)
Тd
(°С)
f(%) Тe
(°С)
Pmin
(гПа)
dP
(гПа)
Po
(мм)
O2
(г/м3)
Тmin Tmax R s Состояние
почвы
00 18.07.17 270 (З) 20000 м    10/10 600 м кучево-дожд. 
[Cb cap]
+14.8 +12 83 +21  1005.3  -1  730  277  +13.3    0.4    влажная 
03 18.07.17 тихо ()   20000 м    10/10 600 м кучево-дожд. 
[Cb cap]
+16.6 +11.7 73 +21  1002.3  -2.7  728  274           
06 18.07.17 тихо ()   20000 м    10/10 600 м кучево-дожд. 
[Cb cap]
+17 +13.5 80 +24  1001.3  -0.8  727  273           
09 18.07.17 270 (З) 20000 м    10/10 600 м кучево-дожд. 
[Cb cap]
+17 +12.1 73 +23  1001.4  727  273           
12 18.07.17 320 (СЗ) 20000 м    10/10 1000 м 
[Sc]
+15.7 +12 79 +21  1001.8  0.2  727  275    +17.4       
15 18.07.17 тихо ()   20000 м    10/6 1000 м верхняя 
[Sc|Ci fib]
+13.8 +10.8 82 +17  1002.4  0.4  727  277           
18 18.07.17 тихо ()   20000 м    10/5 1000 м верхняя 
[Sc|Ci fib]
+12.3 +11.4 94 +16  1002.8  0.3  728  278           
21 18.07.17 тихо ()   20000 м    ясно 
+15.6 +14 90 +23  1002.8  0.3  728  275           
00 19.07.17 320 (СЗ) 20000 м    3/0 верхняя 
[Ci fib]
+16.5 +6.6 52 +17  1002.5  -0.2  728  275  +12        влажная 
03 19.07.17 270 (З) 20000 м    10/0 верхняя 
[Cs]
+19.4 +1.6 30 +20  1001.8  -0.5  727  273           
06 19.07.17 320 (СЗ) 20000 м    10/3 600 м верхняя 
[Cu Sc|Ci fib]
+25.8 +7.1 30 +26  1000.5  -0.4  727  266           
09 19.07.17 320 (СЗ) 20000 м    10/5 600 м верхняя 
[Cu Sc|Ci fib]
+22.2 +6.5 36 +22  1000.9  727  270           
12 19.07.17 тихо ()   20000 м    10/0 верхняя 
[Cs]
+19.3 +1.8 31 +19  1001.5  0.1  727  273    +25.8       
15 19.07.17 тихо ()   20000 м    4/0 верхняя 
[Ci fib]
+14.9 +9.9 72 +17  1002.8  0.9  728  276           
18 19.07.17 тихо ()   20000 м    1/0 верхняя 
[Ci fib]
+11.1 +8.9 86 +11  1004.3  729  280           
21 19.07.17 тихо ()   20000 м    10/0 верхняя 
[Cs]
+6.4 +5.3 93 +6  1004.8  -0.1  728  286           
00 20.07.17 360 (С) 20000 м    4/0 верхняя 
[Ci fib]
+14.9 +8.6 66 +16  1004.1  0.4  729  277  +5.8        влажная 
03 20.07.17 360 (С) 20000 м    10/4 600 м верхняя 
[Cu Sc|Ci fib]
+21.9 +6.4 37 +22  1002.2  -1.1  728  270           
06 20.07.17 360 (С) 20000 м    9/9 600 м кучево-дожд. 
[Cb cap]
+21.3 +7.4 41 +21  1002.2  -0.1  728  271           
09 20.07.17 360 (С) 20000 м    4/3 600 м кучево-дожд., верхняя 
[Cb cap|Ci fib]
+21.7 +6.4 37 +22  1002.3  0.2  728  271           
12 20.07.17 320 (СЗ) 20000 м    3/3 1000 м 
[Sc]
+19.5 +7.1 44 +20  1004.8  1.5  729  273    +22.4       
15 20.07.17 тихо ()   20000 м    3/3 1000 м 
[Sc]
+9.4 +7.3 87 +9  1007  1.7  730  283           
18 20.07.17 тихо ()   20000 м    ясно 
+7.6 +7.2 97 +8  1008.4  1.2  731  285           
21 20.07.17 тихо ()   0500 м  туман  ?/?  
+6.3 +6.3 100 +6  1010.2  1.4  732  287           
00 21.07.17 тихо ()   20000 м  {туман}  3/0 верхняя 
[Ci fib]
+12.4 +2.3 50 +12  1011  1.6  734  282  +6.1        влажная 
Время (UTC), дата Ветер
(°,м/с) 
Видим.   Явления Облачность Т
(°С)
Тd
(°С)
f(%) Тe
(°С)
Pmin
(гПа)
dP
(гПа)
Po
(мм)
O2
(г/м3)
Тmin Tmax R s Состояние
почвы

Для получения пояснительной информации подведите курсор к названию столбца.

ПОГОДА в Буяге - архив

Всё, что Вы хотите узнать о погоде в Буяге - удобно и подробно!

Выберите нужную дату (начиная с 1 января 2015* года) и нажмите кнопку "Найти".
Будут отображены архивные сводки погоды по пункту Буяга, начиная с указанной даты.


Отображать данные в формате CSV (для использования в таблицах Excel)


Внимание! Наш архив погоды предназначен исключительно для личного некоммерческого использования в познавательных целях. Если Вам необходимы официальные справки о состоянии погоды (для производственных, юридических, коммерческих и т.п. целей), обращайтесь в органы Росгидромета.

*Примечание: данная дата относится к архиву по метеостанциям СССР (Россия, СНГ, Балтия).
Архив по метеостанциям Зарубежной Европы и Азии (кроме Китая) хранится 10 дней, по другим регионам земного шара (Китай, Африка, Америка, Австралия, Океания) - 1 день.

Буяга - район местоположения метеостанции


Название, широта, долгота, высота метеостанции:
Буяга 59.6°ш. 127.2°д. 278 м над ур. моря [Российская Федерация]

Дополнительная информация

В oтличие oт бoльшинства пoгoдных сайтoв мы публикуем пoдрoбную метеoинфoрмацию в детальнoм прoфессиoнальнoм фoрмате.

Характеристики температуры и влажнoсти вoздуха измеряются на высoте 2 м в тени вдали oт зданий и деревьев.
Скoрoсть ветра измеряется на высoте 10 м (на урoвне рoста челoвека скoрoсть ветра ниже в 1.5-2 раза). Если метеoстанция нахoдится в гoрoде или в лесу, тo скoрoсть ветра занижена на 2-4 м/с пo сравнению с oткрытым местoм. Скoрoсть ветра над акватoриями крупных рек и oзёр, а также на вершинах хoлмoв на 2-5 м/с выше, чем в oбычных услoвиях.
Атмoсфернoе давление в разных тoчках местнoсти мoжет значительнo oтличаться oт давления на метеoстанции, в зависимoсти oт услoвий рельефа (при пoдъёме на 10 м давление пoнижается примернo на 1 мм рт.ст.).